Tracking 22455 objects as of 8-Mar-2021
HD Live streaming from Space Station
objects crossing your sky now

STARLINK 1038

Track STARLINK 1038 now!
10-day predictions
STARLINK 1038 is classified as:


NORAD ID: 44743
Int'l Code: 2019-074AG
Perigee: 553.3 km
Apogee: 555.4 km
Inclination: 53.1 °
Period: 95.6 minutes
Semi major axis: 6925 km
RCS: Unknown
Launch date: November 11, 2019
Source: United States (US)
Launch site: AIR FORCE EASTERN TEST RANGE (AFETR)
aabbcc
Your satellite tracking list
Your tracking list is empty




NASA's NSSDC Master Catalog

Two Line Element Set (TLE):
1 44743U 19074AG  21067.17202843  .00001112  00000-0  93534-4 0  9999
2 44743  53.0577 150.6659 0001534 150.9581 209.1493 15.06398510 72910
Source of the keplerian elements: AFSPC